TimeGMT,TemperatureF,Dew PointF,Humidity,Sea Level PressureIn,VisibilityMPH,Wind Direction,Wind SpeedMPH,Gust SpeedMPH,PrecipitationIn,Events,Conditions,WindDirDegrees,DateUTC
12:50 AM,24.8,23.0,93,30.27,-9999.0,Calm,Calm,-,N/A,,Partly Cloudy,0,2013-03-03 00:50:00
1:50 AM,24.8,23.0,93,30.27,3.1,East,1.2,-,N/A,,Mist,90,2013-03-03 01:50:00
2:50 AM,24,23,93,30.27,4,NE,1.2,,,Fog,Fog,40,2013-03-03 02:50:00
2:50 AM,24.8,23.0,93,30.24,4.3,NE,1.2,-,N/A,,Unknown,40,2013-03-03 02:50:00
3:50 AM,24.8,23.0,93,30.24,1.6,SSW,1.2,-,N/A,,Mist,200,2013-03-03 03:50:00
4:50 AM,23.0,21.2,93,30.24,-9999.0,NNE,2.3,-,N/A,,Unknown,20,2013-03-03 04:50:00
5:50 AM,24,22,89,30.25,3,SW,1.2,,,,Mist,230,2013-03-03 05:50:00
5:50 AM,23.0,23.0,100,30.24,-9999.0,SW,1.2,-,N/A,,Mostly Cloudy,230,2013-03-03 05:50:00
6:50 AM,26.6,24.8,93,30.21,3.1,NE,1.2,-,N/A,,Mostly Cloudy,50,2013-03-03 06:50:00
7:50 AM,32.0,30.2,93,30.24,6.2,East,4.6,-,N/A,,Overcast,80,2013-03-03 07:50:00
8:50 AM,34,31,82,30.25,7,ENE,8.1,,,,Overcast,60,2013-03-03 08:50:00
8:50 AM,33.8,30.2,87,30.21,6.2,ENE,8.1,-,N/A,,Overcast,60,2013-03-03 08:50:00
9:50 AM,35.6,30.2,81,30.24,6.2,East,8.1,-,N/A,,Overcast,80,2013-03-03 09:50:00
10:50 AM,37.4,30.2,75,30.21,6.2,East,11.5,-,N/A,,Overcast,80,2013-03-03 10:50:00
11:50 AM,39,31,65,30.22,12,East,10.4,,,,Overcast,100,2013-03-03 11:50:00
11:50 AM,39.2,32.0,75,30.21,6.2,East,10.4,-,N/A,,Overcast,100,2013-03-03 11:50:00
12:50 PM,41.0,32.0,70,30.18,6.2,East,12.7,-,N/A,,Overcast,90,2013-03-03 12:50:00
1:50 PM,41.0,32.0,70,30.15,6.2,ESE,13.8,-,N/A,,Overcast,110,2013-03-03 13:50:00
2:50 PM,41,31,59,30.16,12,East,18.4,,,,Overcast,90,2013-03-03 14:50:00
2:50 PM,41.0,32.0,70,30.15,6.2,East,18.4,-,N/A,,Overcast,90,2013-03-03 14:50:00
3:50 PM,42.8,32.0,66,30.12,6.2,East,17.3,-,N/A,,Mostly Cloudy,90,2013-03-03 15:50:00
4:50 PM,42.8,32.0,66,30.09,6.2,East,12.7,-,N/A,,Mostly Cloudy,90,2013-03-03 16:50:00
5:50 PM,39,32,69,30.12,19,ENE,3.5,,,,Mostly Cloudy,70,2013-03-03 17:50:00
5:50 PM,39.2,32.0,75,30.09,6.2,ENE,3.5,-,N/A,,Mostly Cloudy,70,2013-03-03 17:50:00
6:50 PM,37.4,32.0,81,30.09,6.2,East,5.8,-,N/A,,Scattered Clouds,100,2013-03-03 18:50:00
7:50 PM,37.4,33.8,87,30.09,6.2,East,10.4,-,N/A,,Unknown,90,2013-03-03 19:50:00
8:50 PM,37,33,79,30.10,13,East,9.2,,,,,90,2013-03-03 20:50:00
8:50 PM,37.4,32.0,81,30.09,6.2,East,9.2,-,N/A,,Unknown,90,2013-03-03 20:50:00
9:50 PM,35.6,32.0,87,30.09,6.2,East,6.9,-,N/A,,Unknown,90,2013-03-03 21:50:00
10:50 PM,39.2,33.8,81,30.06,6.2,ESE,9.2,-,N/A,,Mostly Cloudy,110,2013-03-03 22:50:00
11:50 PM,39,33,72,30.07,7,East,10.4,,,,Overcast,90,2013-03-03 23:50:00
11:50 PM,39.2,33.8,81,30.06,6.2,East,10.4,-,N/A,,Overcast,90,2013-03-03 23:50:00